Date String (YYYY-MM-DD hh:mm:ss) UTC,Instrument flags,absolute air pressure of the measurement (hPa),sample flow rate (lpm),inlet stack bypass flow (lpm),air temperature of the measurement (°C),ambient temperature measured by the external sensor (°C),aerosol sample conditioner tube jacket temperature (°C),OPC LED temperature (°C),internal box temperature (°C),relative humidity of the measurement (%),span deviation,mass concentration of particles derived from Lorenz-Mie calculation of OPC scattering (μg/m³),mass concentration of particles derived from Lorenz-Mie calculation of OPC scattering (μg/m³),mass concentration of particles derived from Lorenz-Mie calculation of OPC scattering (μg/m³)
DateTimeUTC,F1_M11,P_M11,Q1_M11,Q2_M11,T1_M11,T2_M11,T3_M11,T4_M11,T5_M11,U1_M11,ZSPAN_M11,X2_M11,X0_M11,X1_M11
2024-06-04 09:00:00,SystemResetWarning,0822.5,5.00,000.00,030.9,030.1,000.0,039.2,032.5,018.1,0000.0,0001.18,0002.35,0000.74
2024-06-04 09:01:00,SystemResetWarning,0822.7,4.99,000.00,030.9,030.1,000.0,039.2,032.5,018.1,0000.0,0001.18,0002.37,0000.73
2024-06-04 09:02:00,SystemResetWarning,0822.5,4.99,000.00,030.9,030.1,000.0,039.2,032.5,018.1,0000.0,0001.21,0002.43,0000.73
2024-06-04 09:03:00,SystemResetWarning,0822.6,5.01,000.00,030.9,030.1,000.0,039.2,032.6,018.1,0000.0,0001.21,0002.43,0000.73
2024-06-04 09:04:00,SystemResetWarning,0822.4,5.02,000.00,030.9,030.2,000.0,039.2,032.6,018.1,0000.0,0001.19,0002.38,0000.72
2024-06-04 09:05:00,SystemResetWarning,0822.5,4.99,000.00,030.9,030.2,000.0,039.2,032.6,017.9,0000.0,0001.16,0002.33,0000.71
2024-06-04 09:06:00,SystemResetWarning,0822.4,4.99,000.00,030.9,030.2,000.0,039.2,032.6,017.9,0000.0,0001.13,0002.28,0000.70
2024-06-04 09:07:00,SystemResetWarning,0822.4,5.00,000.00,030.9,030.2,000.0,039.2,032.6,017.9,0000.0,0001.09,0002.09,0000.68
2024-06-04 09:08:00,SystemResetWarning,0822.4,4.99,000.00,030.9,030.2,000.0,039.2,032.5,017.8,0000.0,0001.07,0002.00,0000.68
2024-06-04 09:09:00,SystemResetWarning,0822.4,5.00,000.00,030.9,030.2,000.0,039.2,032.6,017.9,0000.0,0001.06,0001.99,0000.67
2024-06-04 09:10:00,SystemResetWarning,0822.4,5.00,000.00,030.9,030.2,000.0,039.2,032.6,017.9,0000.0,0001.01,0001.91,0000.67
2024-06-04 09:11:00,SystemResetWarning,0822.5,5.00,000.00,030.9,030.2,000.0,039.2,032.6,017.9,0000.0,0000.98,0001.88,0000.66
2024-06-04 09:12:00,SystemResetWarning,0822.5,5.00,000.00,030.9,030.2,000.0,039.2,032.6,017.9,0000.0,0000.99,0001.77,0000.67
2024-06-04 09:13:00,SystemResetWarning,0822.4,5.00,000.00,030.9,030.2,000.0,039.2,032.6,017.8,0000.0,0000.99,0001.81,0000.67
2024-06-04 09:14:00,SystemResetWarning,0822.4,5.00,000.00,030.9,030.2,000.0,039.3,032.6,017.8,0000.0,0001.02,0001.95,0000.68
2024-06-04 09:15:00,SystemResetWarning,0822.4,5.01,000.00,030.9,030.2,000.0,039.3,032.6,017.7,0000.0,0001.02,0001.90,0000.68
2024-06-04 09:16:00,SystemResetWarning,0822.4,5.01,000.00,030.9,030.2,000.0,039.3,032.6,017.8,0000.0,0001.00,0001.89,0000.68
2024-06-04 09:17:00,SystemResetWarning,0822.4,5.00,000.00,030.9,030.2,000.0,039.3,032.6,017.8,0000.0,0000.99,0001.88,0000.68
2024-06-04 09:18:00,SystemResetWarning,0822.3,5.00,000.00,030.9,030.2,000.0,039.3,032.6,017.6,0000.0,0001.03,0001.95,0000.68
2024-06-04 09:19:00,SystemResetWarning,0822.4,5.00,000.00,030.9,030.1,000.0,039.3,032.6,017.6,0000.0,0001.05,0002.02,0000.69
2024-06-04 09:20:00,SystemResetWarning,0822.4,5.00,000.00,030.9,030.1,000.0,039.3,032.6,017.7,0000.0,0001.07,0002.11,0000.69
2024-06-04 09:21:00,SystemResetWarning,0822.4,5.01,000.00,030.9,030.1,000.0,039.3,032.5,017.7,0000.0,0001.08,0002.31,0000.69
2024-06-04 09:22:00,SystemResetWarning,0822.5,5.00,000.00,030.9,030.1,000.0,039.3,032.6,017.6,0000.0,0001.07,0002.25,0000.70
2024-06-04 09:23:00,SystemResetWarning,0822.5,5.00,000.00,030.9,030.1,000.0,039.3,032.5,017.6,0000.0,0001.05,0002.16,0000.69
2024-06-04 09:24:00,SystemResetWarning,0822.4,5.00,000.00,030.9,030.1,000.0,039.3,032.6,017.6,0000.0,0001.09,0002.21,0000.70
2024-06-04 09:25:00,SystemResetWarning,0822.4,5.00,000.00,030.9,030.1,000.0,039.3,032.6,017.6,0000.0,0001.08,0002.15,0000.69
2024-06-04 09:26:00,SystemResetWarning,0822.4,5.00,000.00,030.9,030.1,000.0,039.3,032.5,017.6,0000.0,0001.11,0002.33,0000.69
2024-06-04 09:27:00,SystemResetWarning,0822.4,5.00,000.00,030.9,030.1,000.0,039.3,032.5,017.7,0000.0,0001.12,0002.33,0000.68
2024-06-04 09:28:00,SystemResetWarning,0822.4,4.99,000.00,030.9,030.1,000.0,039.3,032.5,017.8,0000.0,0001.14,0002.41,0000.69
2024-06-04 09:29:00,SystemResetWarning,0822.3,5.00,000.00,030.9,030.1,000.0,039.3,032.5,017.7,0000.0,0001.11,0002.50,0000.68
2024-06-04 09:30:00,SystemResetWarning,0822.3,5.01,000.00,030.9,030.1,000.0,039.3,032.6,017.6,0000.0,0001.11,0003.48,0000.68
2024-06-04 09:31:00,SystemResetWarning,0822.3,5.00,000.00,030.9,030.1,000.0,039.3,032.5,017.5,0000.0,0001.08,0003.33,0000.68
2024-06-04 09:32:00,SystemResetWarning,0822.2,4.99,000.00,030.9,030.1,000.0,039.3,032.5,017.4,0000.0,0001.09,0003.18,0000.67
2024-06-04 09:33:00,SystemResetWarning,0822.2,5.00,000.00,030.9,030.1,000.0,039.3,032.6,017.4,0000.0,0001.18,0003.47,0000.68
2024-06-04 09:34:00,SystemResetWarning,0822.2,4.99,000.00,030.9,030.1,000.0,039.3,032.6,017.5,0000.0,0001.21,0003.52,0000.67
2024-06-04 09:35:00,SystemResetWarning,0822.2,5.00,000.00,030.9,030.1,000.0,039.3,032.5,017.5,0000.0,0001.18,0003.49,0000.66
2024-06-04 09:36:00,SystemResetWarning,0822.1,5.00,000.00,030.9,030.1,000.0,039.3,032.5,017.5,0000.0,0001.16,0003.44,0000.66
2024-06-04 09:37:00,SystemResetWarning,0822.0,5.00,000.00,030.9,030.1,000.0,039.3,032.5,017.4,0000.0,0001.16,0003.51,0000.67
2024-06-04 09:38:00,SystemResetWarning,0822.0,5.00,000.00,030.9,030.1,000.0,039.3,032.5,017.5,0000.0,0001.16,0003.70,0000.68
2024-06-04 09:39:00,SystemResetWarning,0821.9,5.01,000.00,030.9,030.1,000.0,039.3,032.5,017.5,0000.0,0001.17,0003.74,0000.68
2024-06-04 09:40:00,SystemResetWarning,0822.0,5.00,000.00,030.9,030.0,000.0,039.3,032.5,017.4,0000.0,0001.19,0003.78,0000.68
2024-06-04 09:41:00,SystemResetWarning,0821.8,5.01,000.00,030.9,030.0,000.0,039.3,032.5,017.4,0000.0,0001.19,0002.69,0000.67
2024-06-04 09:42:00,SystemResetWarning,0821.8,5.01,000.00,030.8,030.0,000.0,039.3,032.5,017.5,0000.0,0001.24,0002.80,0000.68
2024-06-04 09:43:00,SystemResetWarning,0821.7,5.00,000.00,030.8,030.0,000.0,039.3,032.4,017.5,0000.0,0001.28,0003.05,0000.68
2024-06-04 09:44:00,SystemResetWarning,0821.7,5.00,000.00,030.8,030.0,000.0,039.3,032.4,017.5,0000.0,0001.20,0002.87,0000.68
2024-06-04 09:45:00,SystemResetWarning,0821.7,5.00,000.00,030.8,029.9,000.0,039.3,032.4,017.5,0000.0,0001.15,0002.81,0000.67
2024-06-04 09:46:00,SystemResetWarning,0821.7,5.00,000.00,030.8,029.9,000.0,039.2,032.4,017.5,0000.0,0001.14,0002.83,0000.67
2024-06-04 09:47:00,SystemResetWarning,0821.7,5.00,000.00,030.8,029.9,000.0,039.2,032.4,017.5,0000.0,0001.13,0002.78,0000.66
2024-06-04 09:48:00,SystemResetWarning,0821.5,4.99,000.00,030.8,029.9,000.0,039.2,032.4,017.5,0000.0,0001.08,0002.57,0000.65
2024-06-04 09:49:00,SystemResetWarning,0821.5,4.99,000.00,030.8,029.9,000.0,039.2,032.4,017.5,0000.0,0001.06,0002.25,0000.65
2024-06-04 09:50:00,SystemResetWarning,0821.8,5.00,000.00,030.8,029.8,000.0,039.2,032.4,017.6,0000.0,0001.09,0002.27,0000.66
2024-06-04 09:51:00,SystemResetWarning,0821.8,5.00,000.00,030.7,029.8,000.0,039.2,032.4,017.6,0000.0,0001.08,0002.26,0000.66
2024-06-04 09:52:00,SystemResetWarning,0821.6,5.00,000.00,030.7,029.8,000.0,039.2,032.4,017.6,0000.0,0001.06,0002.18,0000.66
2024-06-04 09:53:00,SystemResetWarning,0821.6,5.00,000.00,030.7,029.8,000.0,039.2,032.4,017.6,0000.0,0001.03,0002.19,0000.66
2024-06-04 09:54:00,SystemResetWarning,0821.6,5.00,000.00,030.7,029.8,000.0,039.2,032.4,017.6,0000.0,0001.00,0002.01,0000.65
2024-06-04 09:55:00,SystemResetWarning,0821.6,5.00,000.00,030.7,029.8,000.0,039.2,032.3,017.6,0000.0,0001.05,0002.01,0000.66
2024-06-04 09:56:00,SystemResetWarning,0821.6,5.00,000.00,030.7,029.8,000.0,039.2,032.3,017.9,0000.0,0001.07,0002.21,0000.67
2024-06-04 09:57:00,SystemResetWarning,0821.7,4.99,000.00,030.7,029.8,000.0,039.2,032.3,017.9,0000.0,0001.11,0002.26,0000.68
2024-06-04 09:58:00,SystemResetWarning,0821.6,5.00,000.00,030.7,029.8,000.0,039.2,032.3,018.0,0000.0,0001.18,0002.75,0000.69
2024-06-04 09:59:00,SystemResetWarning,0821.6,4.99,000.00,030.7,029.8,000.0,039.1,032.3,017.9,0000.0,0001.22,0002.99,0000.70
